Location: Unspecified
(50.1700°N, 6.8600°E)
Time: 12:25:36
(UTC+00:00)

Meteor 1-16 Rocket - Pass Details

Date: 24 January 2019
Orbit: 789 x 908 km, 81.2° (Epoch: 19 February)

Event Time Altitude Azimuth Distance (km) Brightness Sun altitude
Rises 05:15:15 0° 202° (SSW) 3,478 7.2 -19.3°
Reaches altitude 10° 05:17:46 10° 207° (SSW) 2,528 6.5 -18.9°
Maximum altitude 05:23:25 59° 286° (WNW) 993 4.2 -18.0°
Drops below altitude 10° 05:28:57 10° 6° (N) 2,466 6.6 -17.1°
Sets 05:31:23 0° 10° (N) 3,386 7.4 -16.7°
